Погода Кочубей

Погода Кочубей : погода сейчас, прогноз погоды и архив. Всё, что Вы хотите узнать о погоде Кочубей!

Поиск расширенной информации на нашем сайте:

Другие новости

Новости СМИ2

Главная страница сайта

Новости сайта

03.07.2017

Напоминаем, что на нашем специализированном сайте Метеоцентр.Азия вы можете получить высокодетализированные автоматические прогнозы погоды по пунктам России, СНГ и мира в авиационном формате (включающие направление и скорость ветра, видимость, явления погоды, количество и форму облачности, нижнюю и верхнюю границу облачности).


Погода Кочубей - сегодня

Время (UTC), дата Ветер
(°,м/с) 
Видим.   Явления Облачность Т
(°С)
Тd
(°С)
f(%) Тe
(°С)
Pmin
(гПа)
dP
(гПа)
Po
(мм)
O2
(г/м3)
Тmin Tmax R s Состояние
почвы
21 18.05.18 170 (Ю) 4000 м    ясно 
+15.7 +14.5 93 +23  1015.2  0.1  763  288           
00 19.05.18 тихо ()   4000 м  дымка  ясно 
+10.8 +10.1 95 +12  1014.3  -0.8  763  294           
03 19.05.18 тихо ()   20000 м    6/0 верхняя 
[Ci fib]
+15.1 +14 93 +22  1014.9  0.6  763  289  +9.9        сухая 
06 19.05.18 180 (Ю) 20000 м    9/0 верхняя 
[Ci fib]
+25.1 +9.9 38 +26  1015.1  0.1  763  280           
09 19.05.18 340 (С) 20000 м    8/0 верхняя 
[Ci fib]
+31 +4.3 18 +31  1014.2  -1  763  275           
12 19.05.18 100 (В) 20000 м    8/0 верхняя 
[Ci sp]
+31.7 +3.9 17 +32  1013.6  -0.6  762  275           
15 19.05.18 120 (ЮВ) 20000 м    8/0 верхняя 
[Ci fib]
+28.7 +6.9 25 +29  1013.8  0.2  762  277    +32.3       
18 19.05.18 160 (Ю) 4000 м    6/0 верхняя 
[Ci fib]
+23.3 +8.3 38 +23  1014.4  0.7  763  282           
21 19.05.18 140 (ЮВ) 4000 м    6/0 верхняя 
[Ci fib]
+18.3 +13.8 75 +25  1013.8  -0.6  762  285           
00 20.05.18 090 (В) 4000 м    8/0 верхняя 
[Ci fib]
+14.8 +12.1 84 +20  1013.6  -0.1  762  289           
03 20.05.18 070 (В) 20000 м    9/9 600 м 
[Sc]
+18.1 +15.5 85 +28  1013.6  -0.1  762  285  +13.5        сухая 
06 20.05.18 060 (СВ) 20000 м    10/6 600 м средняя, верхняя 
[Sc|Ac trans|Ci fib]
+24.9 +15 54 +33  1013.3  -0.4  762  278           
09 20.05.18 070 (В) 20000 м    10/0 средняя, верхняя 
[Ac trans|Ci fib]
+28.4 +11.3 35 +31  1012.7  -0.6  761  276           
12 20.05.18 070 (В) 20000 м    8/3 600 м верхняя 
[Cu med, cong|Ci sp]
+27.5 +14.4 45 +35  1012.2  -0.5  761  276           
15 20.05.18 070 (В) 20000 м    8/3 600 м верхняя 
[Cu med, cong|Ci sp]
+26.1 +16.2 54 +37  1011.6  -0.6  761  276    +28.5       
18 20.05.18 110 (В) 4000 м    8/0 верхняя 
[Ci sp]
+22.4 +12.7 54 +27  1012.3  0.7  761  281           
21 20.05.18 080 (В) 4000 м    ясно 
+16.9 +12 73 +22  1011.5  -0.7  761  286           
00 21.05.18 100 (В) 4000 м    4/0 верхняя 
[Ci fib]
+17.2 +13.5 79 +24  1011.1  -0.5  760  286           
03 21.05.18 тихо ()   20000 м    9/0 средняя, верхняя 
[Ac trans|Ci sp]
+18.3 +14.1 76 +25  1011.8  0.8  761  284  +15.8        сухая 
06 21.05.18 140 (ЮВ) 20000 м    9/0 средняя, верхняя 
[Ac trans|Ci fib]
+25.4 +13.7 48 +32  1012.9  762  278           
09 21.05.18 350 (С) н/о    н/о 
+31.8 +12.3 30 +36  1012.3  761  272           
12 21.05.18 070 (В) 20000 м    3/0 средняя, верхняя 
[Ac trans|Ci fib]
+31.5 +13.6 34 +38  1011.7  -0.6  761  272           
15 21.05.18 120 (ЮВ) 20000 м    10/0 средняя, верхняя 
[Ac trans|Ci ing]
+28.9 +13.8 40 +35  1012.2  -0.5  761  275    +33.2       
18 21.05.18 340 (С) 4000 м    10/6 600 м верхняя 
[Sc|Ci sp]
+25.1 +15.9 57 +35  1014  1.8  762  278           
21 21.05.18 300 (СЗ) 5{12}  4000 м    10/8 600 м верхняя 
[Sc|Ci fib]
+24.2 +11.2 44 +27  1015.5  1.6  764  281           
Время (UTC), дата Ветер
(°,м/с) 
Видим.   Явления Облачность Т
(°С)
Тd
(°С)
f(%) Тe
(°С)
Pmin
(гПа)
dP
(гПа)
Po
(мм)
O2
(г/м3)
Тmin Tmax R s Состояние
почвы

Для получения пояснительной информации подведите курсор к названию столбца.

ПОГОДА Кочубей - архив

Всё, что Вы хотите узнать о погоде Кочубей - удобно и подробно!

Выберите нужную дату (начиная с 1 января 2015* года) и нажмите кнопку "Найти".
Будут отображены архивные сводки погоды по пункту Кочубей, начиная с указанной даты.


Отображать данные в формате CSV (для использования в таблицах Excel)


Внимание! Наш архив погоды предназначен исключительно для личного некоммерческого использования в познавательных целях. Если Вам необходимы официальные справки о состоянии погоды (для производственных, юридических, коммерческих и т.п. целей), обращайтесь в органы Росгидромета.

*Примечание: данная дата относится к архиву по метеостанциям СССР (Россия, СНГ, Балтия).
Архив по метеостанциям Зарубежной Европы и Азии (кроме Китая) хранится 10 дней, по другим регионам земного шара (Китай, Африка, Америка, Австралия, Океания) - 1 день.

Кочубей - район местоположения метеостанции


Название, широта, долгота, высота метеостанции:
Кочубей 44.4°ш. 46.6°д. -21 м над ур. моря [Российская Федерация]

Дополнительная информация

В oтличие oт бoльшинства пoгoдных сайтoв мы публикуем пoдрoбную метеoинфoрмацию в детальнoм прoфессиoнальнoм фoрмате.

Характеристики температуры и влажнoсти вoздуха измеряются на высoте 2 м в тени вдали oт зданий и деревьев.
Скoрoсть ветра измеряется на высoте 10 м (на урoвне рoста челoвека скoрoсть ветра ниже в 1.5-2 раза). Если метеoстанция нахoдится в гoрoде или в лесу, тo скoрoсть ветра занижена на 2-4 м/с пo сравнению с oткрытым местoм. Скoрoсть ветра над акватoриями крупных рек и oзёр, а также на вершинах хoлмoв на 2-5 м/с выше, чем в oбычных услoвиях.
Атмoсфернoе давление в разных тoчках местнoсти мoжет значительнo oтличаться oт давления на метеoстанции, в зависимoсти oт услoвий рельефа (при пoдъёме на 10 м давление пoнижается примернo на 1 мм рт.ст.).